Location: ????????
(55.5667°N, 37.5833°E)
Time: 09:06:12
(UTC+00:00)

ARIANE 6 FM1 Upper Stage - Pass Details

Date: 14 April 2026
Orbit: 526 x 602 km, 62.0° (Epoch: 10 May)

Event Time Altitude Azimuth Distance (km) Brightness Sun altitude
Rises 18:19:51 0° 255° (WSW) 2,716 6.7 -13.8°
Reaches altitude 10° 18:22:08 10° 262° (W) 1,812 5.8 -14.1°
Maximum altitude 18:26:05 48° 337° (NNW) 710 3.6 -14.5°
Drops below altitude 10° 18:29:59 10° 53° (NE) 1,787 5.1 -14.9°
Sets 18:32:13 0° 59° (ENE) 2,674 6.0 -15.1°
